EW3163 Weather Reports


Display with metric or nautical units.
time (UTC)temp
F
wind
direction
speed
MPH
gust
MPH
rain 1hr
in
rain 24hr
in
rain mn
in
humidity
%
barometer
mb
20260906093038 60 201 0.0 0.0 0.00 0.00 0.00 81 1017.9
20260906091541 59 147 0.0 0.0 0.00 0.00 0.00 81 1018.0
20260906090031 59 205 0.0 1.0 0.00 0.00 0.00 82 1017.8
20260906084535 59 148 0.0 0.0 0.00 0.00 0.00 82 1017.8
20260906083033 58 141 0.0 0.0 0.00 0.00 0.00 83 1018.0
20260906081542 58 145 0.0 0.0 0.00 0.00 0.00 82 1018.1
20260906080026 58 160 0.0 2.0 0.00 0.00 0.00 82 1018.2
20260906074523 57 174 0.0 0.0 0.00 0.00 0.00 85 1018.3
20260906073021 57 133 0.0 2.0 0.00 0.00 0.00 85 1018.4
20260906071518 56 129 0.0 1.0 0.00 0.00 0.00 87 1018.4
20260906070015 56 135 0.0 1.0 0.00 0.00 0.00 87 1018.6
20260906064514 55 201 0.0 1.0 0.00 0.00 0.00 89 1018.9
20260906063010 54 124 0.0 2.0 0.00 0.00 0.00 91 1019.1
20260906061508 53 131 0.0 0.0 0.00 0.00 0.00 92 1019.2
20260906060001 0 0.0 0.0 0.00 0.00 0.00 1019.3
20260906054557 0 0.0 0.0 0.00 0.00 0.00 1019.4
20260906053053 0 0.0 0.0 0.00 0.00 0.00 1019.5
20260906051549 0 0.0 0.0 0.00 0.00 0.00 1019.6
20260906050050 50 167 0.0 0.0 0.00 0.00 0.00 92 1019.7
20260906044545 51 162 0.0 0.0 0.00 0.00 0.00 93 1020.0
20260906043046 51 131 0.0 0.0 0.00 0.00 0.00 93 1020.2
20260906041546 50 158 0.0 0.0 0.00 0.00 0.00 93 1020.3
20260906040040 50 158 0.0 0.0 0.00 0.00 0.00 93 1020.4
20260906034545 50 158 0.0 0.0 0.00 0.00 0.00 93 1020.5
20260906033039 49 203 0.0 0.0 0.00 0.00 0.00 93 1020.7
20260906031547 49 203 0.0 0.0 0.00 0.00 0.00 93 1020.8
20260906030034 49 203 0.0 0.0 0.00 0.00 0.00 94 1020.9
20260906024532 48 157 0.0 0.0 0.00 0.00 0.00 94 1021.2
20260906023031 48 124 0.0 0.0 0.00 0.00 0.00 92 1021.3
20260906021527 48 124 0.0 0.0 0.00 0.00 0.00 92 1021.5
20260906020031 48 124 0.0 0.0 0.00 0.00 0.00 92 1021.7
20260906014527 48 124 0.0 0.0 0.00 0.00 0.00 93 1021.8
20260906013023 48 124 0.0 0.0 0.00 0.00 0.00 91 1021.9
20260906011520 48 124 0.0 0.0 0.00 0.00 0.00 91 1022.1
20260906010018 48 124 0.0 0.0 0.00 0.00 0.00 91 1022.2
20260906004516 48 124 0.0 0.0 0.00 0.00 0.00 90 1022.5
20260906003022 48 124 0.0 0.0 0.00 0.00 0.00 89 1022.7
20260906001512 49 124 0.0 0.0 0.00 0.00 0.00 87 1022.8
20260906000009 50 124 0.0 0.0 0.00 0.00 0.00 87 1022.7
20260905234509 51 124 0.0 0.0 0.00 0.00 0.00 87 1022.8
20260905233002 52 124 0.0 0.0 0.00 0.00 0.00 87 1022.8
20260905231600 52 124 0.0 0.0 0.00 0.00 0.00 86 1023.0
20260905230057 53 124 0.0 0.0 0.00 0.00 0.00 86 1023.1
20260905224605 53 124 0.0 0.0 0.00 0.00 0.00 86 1023.1
20260905223054 53 124 0.0 0.0 0.00 0.00 0.00 86 1023.1
20260905221553 53 124 0.0 0.0 0.00 0.00 0.00 86 1023.1
20260905220100 54 124 0.0 0.0 0.00 0.00 0.00 85 1023.0
20260905214550 54 124 0.0 0.0 0.00 0.00 0.00 84 1023.2
20260905213055 55 124 0.0 0.0 0.00 0.00 0.00 83 1023.2
20260905211550 56 124 0.0 0.0 0.00 0.00 0.00 82 1023.3
20260905210106 57 124 0.0 0.0 0.00 0.00 0.00 81 1023.4
20260905204548 58 124 0.0 0.0 0.00 0.00 0.00 80 1023.1
20260905203049 59 124 0.0 0.0 0.00 0.00 0.00 79 1022.8
20260905201553 59 136 0.0 0.0 0.00 0.00 0.00 79 1022.7
20260905200057 59 129 0.0 0.0 0.00 0.00 0.00 78 1022.5
20260905194544 59 35 0.0 0.0 0.00 0.00 0.00 77 1022.8
20260905193044 59 2 0.0 0.0 0.00 0.00 0.00 75 1022.9
20260905191543 60 2 0.0 0.0 0.00 0.00 0.00 74 1022.6
20260905190040 61 2 0.0 0.0 0.00 0.00 0.00 72 1022.5
20260905184540 61 2 0.0 0.0 0.00 0.00 0.00 71 1022.5
20260905183037 61 350 0.0 0.0 0.00 0.00 0.00 70 1022.3
20260905181538 62 349 0.0 0.0 0.00 0.00 0.00 68 1022.0
20260905180038 62 85 0.0 0.0 0.00 0.00 0.00 66 1022.2
20260905174537 63 5 0.0 0.0 0.00 0.00 0.00 64 1022.4
20260905173037 63 1 0.0 0.0 0.00 0.00 0.00 63 1021.9
20260905171541 64 319 0.0 1.0 0.00 0.00 0.00 61 1021.8
20260905170032 65 31 0.0 2.0 0.00 0.00 0.00 60 1021.6
20260905164532 65 345 0.0 1.0 0.00 0.00 0.00 61 1021.5
20260905163027 65 333 0.0 3.0 0.00 0.00 0.00 58 1021.4
20260905161536 65 89 0.0 0.0 0.00 0.00 0.00 61 1021.3
20260905160036 65 6 0.0 1.0 0.00 0.00 0.00 61 1021.5
20260905154545 65 58 0.0 3.0 0.00 0.00 0.00 61 1021.3
20260905153027 65 358 0.0 3.0 0.00 0.00 0.00 59 1021.3
20260905151524 65 308 0.0 4.0 0.00 0.00 0.00 61 1021.4
20260905150025 65 31 0.0 3.0 0.00 0.00 0.00 60 1021.3
20260905144534 65 314 0.0 4.0 0.00 0.00 0.00 59 1021.1
20260905143020 66 323 0.0 3.0 0.00 0.00 0.00 61 1021.0
20260905141523 66 346 0.0 2.0 0.00 0.00 0.00 59 1020.9
20260905140021 66 314 0.0 2.0 0.00 0.00 0.00 59 1020.7
20260905134518 65 318 0.0 4.0 0.00 0.00 0.00 60 1020.7
20260905133016 67 321 0.0 4.0 0.00 0.00 0.00 57 1020.6
20260905131514 64 311 0.0 5.0 0.00 0.00 0.00 61 1020.6
20260905130016 65 33 0.0 3.0 0.00 0.00 0.00 60 1020.5
20260905124512 65 60 0.0 9.0 0.00 0.00 0.00 60 1020.3
20260905123010 64 323 0.0 3.0 0.00 0.00 0.00 62 1020.4
20260905121508 64 321 0.0 3.0 0.00 0.00 0.00 61 1020.1
20260905120007 65 318 1.0 6.0 0.00 0.00 0.00 59 1020.1
20260905114506 66 330 0.0 7.0 0.00 0.00 0.00 58 1020.0
20260905113007 66 25 0.0 4.0 0.00 0.00 0.00 58 1019.8
20260905111502 65 27 0.0 7.0 0.00 0.00 0.00 58 1019.7
20260905104558 63 298 1.0 5.0 0.00 0.00 0.00 61 1019.5
20260905103056 64 25 0.0 6.0 0.00 0.00 0.00 60 1019.4
20260905101552 64 298 0.0 6.0 0.00 0.00 0.00 63 1019.2
20260905100051 63 321 0.0 4.0 0.00 0.00 0.00 64 1019.1
20260905094559 62 319 0.0 6.0 0.00 0.00 0.00 64 1018.8